| time (UTC) | temp F | wind direction | speed MPH | gust MPH | rain 1hr in | rain 24hr in | rain mn in | humidity % | barometer mb |
| 20260504160107 | 67 | 140 | 2.0 | 5.0 | 0.00 | 0.00 | 0.00 | 45 | 1012.7 |
| 20260504151100 | 64 | 138 | 1.0 | 5.0 | 0.00 | 0.00 | 0.00 | 48 | 1013.1 |
| 20260504150600 | 64 | 138 | 1.0 | 7.0 | 0.00 | 0.00 | 0.00 | 50 | 1013.2 |
| 20260504141058 | 61 | 115 | 0.0 | 3.0 | 0.00 | 0.00 | 0.00 | 48 | 1013.3 |
| 20260504140558 | 60 | 0 | 0.0 | 4.0 | 0.00 | 0.00 | 0.00 | 49 | 1013.3 |
| 20260504130559 | 54 | 0 | 0.0 | 4.0 | 0.00 | 0.00 | 0.00 | 57 | 1013.9 |
| 20260504110602 | 46 | 0 | 0.0 | 2.0 | 0.00 | 0.00 | 0.00 | 80 | 1014.4 |
| 20260504100559 | 47 | 0 | 0.0 | 1.0 | 0.00 | 0.00 | 0.00 | 74 | 1014.2 |
| 20260504081607 | 46 | 0 | 0.0 | 0.0 | 0.00 | 0.00 | 0.00 | 82 | 1014.6 |
| 20260504081100 | 46 | 0 | 0.0 | 0.0 | 0.00 | 0.00 | 0.00 | 82 | 1014.5 |
| 20260504080600 | 45 | 0 | 0.0 | 0.0 | 0.00 | 0.00 | 0.00 | 82 | 1014.5 |
| 20260504060126 | 44 | 0 | 0.0 | 1.0 | 0.00 | 0.00 | 0.00 | 83 | 1015.0 |
| 20260504050600 | 42 | 0 | 0.0 | 0.0 | 0.00 | 0.00 | 0.00 | 82 | 1014.9 |
| 20260504050116 | 42 | 0 | 0.0 | 0.0 | 0.00 | 0.00 | 0.00 | 81 | 1015.0 |
| 20260504045559 | 42 | 0 | 0.0 | 0.0 | 0.00 | 0.00 | 0.00 | 81 | 1014.9 |
| 20260504045059 | 42 | 0 | 0.0 | 0.0 | 0.00 | 0.00 | 0.00 | 81 | 1015.0 |
| 20260504044558 | 42 | 0 | 0.0 | 0.0 | 0.00 | 0.00 | 0.00 | 81 | 1014.9 |
| 20260504044059 | 42 | 0 | 0.0 | 0.0 | 0.00 | 0.00 | 0.00 | 81 | 1014.8 |
| 20260504043600 | 42 | 0 | 0.0 | 0.0 | 0.00 | 0.00 | 0.00 | 82 | 1014.9 |
| 20260504043110 | 42 | 0 | 0.0 | 0.0 | 0.00 | 0.00 | 0.00 | 82 | 1014.9 |
| 20260504042559 | 42 | 0 | 0.0 | 0.0 | 0.00 | 0.00 | 0.00 | 81 | 1014.9 |
| 20260504042100 | 42 | 0 | 0.0 | 0.0 | 0.00 | 0.00 | 0.00 | 81 | 1014.7 |
| 20260504041600 | 41 | 0 | 0.0 | 0.0 | 0.00 | 0.00 | 0.00 | 80 | 1014.8 |
| 20260504041100 | 41 | 0 | 0.0 | 0.0 | 0.00 | 0.00 | 0.00 | 80 | 1014.7 |
| 20260504040600 | 41 | 0 | 0.0 | 0.0 | 0.00 | 0.00 | 0.00 | 79 | 1014.7 |
| 20260504040106 | 41 | 0 | 0.0 | 0.0 | 0.00 | 0.00 | 0.00 | 79 | 1014.9 |
| 20260504035602 | 42 | 0 | 0.0 | 0.0 | 0.00 | 0.00 | 0.00 | 79 | 1015.0 |
| 20260504035100 | 42 | 0 | 0.0 | 0.0 | 0.00 | 0.00 | 0.00 | 79 | 1015.0 |
| 20260504034601 | 42 | 0 | 0.0 | 0.0 | 0.00 | 0.00 | 0.00 | 78 | 1015.1 |
| 20260504034059 | 42 | 0 | 0.0 | 0.0 | 0.00 | 0.00 | 0.00 | 79 | 1015.0 |
| 20260504033559 | 42 | 0 | 0.0 | 0.0 | 0.00 | 0.00 | 0.00 | 78 | 1015.0 |
| 20260504033100 | 42 | 0 | 0.0 | 0.0 | 0.00 | 0.00 | 0.00 | 77 | 1014.9 |
| 20260504032600 | 42 | 0 | 0.0 | 0.0 | 0.00 | 0.00 | 0.00 | 77 | 1014.9 |
| 20260504032102 | 42 | 0 | 0.0 | 0.0 | 0.00 | 0.00 | 0.00 | 77 | 1014.7 |
| 20260504031605 | 42 | 0 | 0.0 | 0.0 | 0.00 | 0.00 | 0.00 | 76 | 1014.8 |
| 20260504031100 | 43 | 0 | 0.0 | 0.0 | 0.00 | 0.00 | 0.00 | 76 | 1014.7 |
| 20260504030600 | 43 | 0 | 0.0 | 0.0 | 0.00 | 0.00 | 0.00 | 75 | 1014.7 |
| 20260504030057 | 43 | 0 | 0.0 | 0.0 | 0.00 | 0.00 | 0.00 | 75 | 1014.8 |
| 20260504025559 | 43 | 0 | 0.0 | 0.0 | 0.00 | 0.00 | 0.00 | 74 | 1014.7 |
| 20260504025059 | 43 | 0 | 0.0 | 0.0 | 0.00 | 0.00 | 0.00 | 72 | 1014.6 |
| 20260504024558 | 43 | 0 | 0.0 | 0.0 | 0.00 | 0.00 | 0.00 | 73 | 1014.6 |
| 20260504024100 | 44 | 0 | 0.0 | 0.0 | 0.00 | 0.00 | 0.00 | 71 | 1014.6 |
| 20260504023559 | 44 | 0 | 0.0 | 0.0 | 0.00 | 0.00 | 0.00 | 71 | 1014.6 |
| 20260504023059 | 44 | 0 | 0.0 | 0.0 | 0.00 | 0.00 | 0.00 | 71 | 1014.6 |
| 20260504022600 | 44 | 0 | 0.0 | 0.0 | 0.00 | 0.00 | 0.00 | 69 | 1014.6 |
| 20260504022059 | 44 | 0 | 0.0 | 0.0 | 0.00 | 0.00 | 0.00 | 69 | 1014.6 |
| 20260504021557 | 45 | 0 | 0.0 | 0.0 | 0.00 | 0.00 | 0.00 | 68 | 1014.5 |
| 20260504021059 | 45 | 0 | 0.0 | 0.0 | 0.00 | 0.00 | 0.00 | 68 | 1014.5 |
| 20260504020559 | 45 | 0 | 0.0 | 0.0 | 0.00 | 0.00 | 0.00 | 68 | 1014.4 |
| 20260504020058 | 45 | 0 | 0.0 | 0.0 | 0.00 | 0.00 | 0.00 | 67 | 1014.5 |
| 20260504015559 | 46 | 0 | 0.0 | 0.0 | 0.00 | 0.00 | 0.00 | 66 | 1014.4 |
| 20260504015100 | 46 | 0 | 0.0 | 0.0 | 0.00 | 0.00 | 0.00 | 66 | 1014.3 |
| 20260504014603 | 46 | 0 | 0.0 | 0.0 | 0.00 | 0.00 | 0.00 | 65 | 1014.3 |
| 20260504014059 | 47 | 0 | 0.0 | 0.0 | 0.00 | 0.00 | 0.00 | 63 | 1014.3 |
| 20260504013600 | 47 | 0 | 0.0 | 0.0 | 0.00 | 0.00 | 0.00 | 61 | 1014.3 |
| 20260504013113 | 48 | 0 | 0.0 | 0.0 | 0.00 | 0.00 | 0.00 | 60 | 1014.2 |
| 20260504012559 | 48 | 0 | 0.0 | 0.0 | 0.00 | 0.00 | 0.00 | 61 | 1014.1 |
| 20260504012100 | 49 | 0 | 0.0 | 0.0 | 0.00 | 0.00 | 0.00 | 59 | 1014.0 |
| 20260504011559 | 49 | 0 | 0.0 | 0.0 | 0.00 | 0.00 | 0.00 | 58 | 1014.0 |
| 20260504011059 | 49 | 0 | 0.0 | 0.0 | 0.00 | 0.00 | 0.00 | 58 | 1013.9 |
| 20260504010559 | 49 | 0 | 0.0 | 0.0 | 0.00 | 0.00 | 0.00 | 56 | 1013.9 |
| 20260504010115 | 50 | 0 | 0.0 | 0.0 | 0.00 | 0.00 | 0.00 | 55 | 1014.0 |
| 20260504005600 | 50 | 0 | 0.0 | 0.0 | 0.00 | 0.00 | 0.00 | 55 | 1014.0 |
| 20260504005100 | 50 | 0 | 0.0 | 0.0 | 0.00 | 0.00 | 0.00 | 54 | 1014.0 |
| 20260504004600 | 51 | 0 | 0.0 | 0.0 | 0.00 | 0.00 | 0.00 | 53 | 1013.9 |
| 20260504004102 | 51 | 0 | 0.0 | 0.0 | 0.00 | 0.00 | 0.00 | 52 | 1013.8 |
| 20260504003559 | 52 | 0 | 0.0 | 0.0 | 0.00 | 0.00 | 0.00 | 50 | 1013.8 |
| 20260504003057 | 53 | 0 | 0.0 | 0.0 | 0.00 | 0.00 | 0.00 | 50 | 1013.8 |
| 20260504002600 | 53 | 0 | 0.0 | 0.0 | 0.00 | 0.00 | 0.00 | 48 | 1013.7 |
| 20260504002100 | 54 | 0 | 0.0 | 0.0 | 0.00 | 0.00 | 0.00 | 47 | 1013.7 |
| 20260504001604 | 54 | 0 | 0.0 | 0.0 | 0.00 | 0.00 | 0.00 | 46 | 1013.7 |
| 20260504001100 | 55 | 0 | 0.0 | 0.0 | 0.00 | 0.00 | 0.00 | 45 | 1013.6 |
| 20260504000601 | 56 | 0 | 0.0 | 0.0 | 0.00 | 0.00 | 0.00 | 42 | 1013.5 |
| 20260504000101 | 56 | 0 | 0.0 | 0.0 | 0.00 | 0.00 | 0.00 | 40 | 1013.5 |
| 20260503235603 | 57 | 0 | 0.0 | 0.0 | 0.00 | 0.00 | 0.00 | 39 | 1013.4 |
| 20260503235100 | 58 | 0 | 0.0 | 0.0 | 0.00 | 0.00 | 0.00 | 38 | 1013.4 |
| 20260503234557 | 58 | 0 | 0.0 | 0.0 | 0.00 | 0.00 | 0.00 | 37 | 1013.5 |
| 20260503234102 | 59 | 0 | 0.0 | 0.0 | 0.00 | 0.00 | 0.00 | 35 | 1013.5 |
| 20260503233600 | 59 | 0 | 0.0 | 0.0 | 0.00 | 0.00 | 0.00 | 34 | 1013.4 |
| 20260503233103 | 60 | 0 | 0.0 | 1.0 | 0.00 | 0.00 | 0.00 | 34 | 1013.3 |
| 20260503232559 | 60 | 0 | 0.0 | 2.0 | 0.00 | 0.00 | 0.00 | 33 | 1013.3 |
| 20260503232059 | 60 | 0 | 0.0 | 2.0 | 0.00 | 0.00 | 0.00 | 30 | 1013.4 |
| 20260503231558 | 61 | 0 | 0.0 | 2.0 | 0.00 | 0.00 | 0.00 | 31 | 1013.3 |
| 20260503231100 | 61 | 0 | 0.0 | 3.0 | 0.00 | 0.00 | 0.00 | 31 | 1013.2 |
| 20260503230600 | 62 | 0 | 0.0 | 3.0 | 0.00 | 0.00 | 0.00 | 30 | 1013.2 |
| 20260503230058 | 62 | 0 | 0.0 | 5.0 | 0.00 | 0.00 | 0.00 | 29 | 1013.2 |
| 20260503225603 | 62 | 0 | 1.0 | 7.0 | 0.00 | 0.00 | 0.00 | 29 | 1013.2 |
| 20260503225100 | 62 | 0 | 1.0 | 7.0 | 0.00 | 0.00 | 0.00 | 30 | 1013.2 |
| 20260503224600 | 63 | 0 | 0.0 | 5.0 | 0.00 | 0.00 | 0.00 | 32 | 1013.2 |
| 20260503224102 | 63 | 90 | 1.0 | 5.0 | 0.00 | 0.00 | 0.00 | 29 | 1013.2 |
| 20260503223602 | 64 | 246 | 1.0 | 4.0 | 0.00 | 0.00 | 0.00 | 26 | 1013.2 |
| 20260503223100 | 65 | 339 | 0.0 | 5.0 | 0.00 | 0.00 | 0.00 | 27 | 1013.3 |
| 20260503222559 | 66 | 0 | 0.0 | 5.0 | 0.00 | 0.00 | 0.00 | 28 | 1013.2 |
| 20260503222101 | 66 | 52 | 1.0 | 7.0 | 0.00 | 0.00 | 0.00 | 25 | 1013.2 |
| 20260503221606 | 66 | 6 | 2.0 | 7.0 | 0.00 | 0.00 | 0.00 | 26 | 1013.3 |
| 20260503221100 | 67 | 151 | 0.0 | 4.0 | 0.00 | 0.00 | 0.00 | 27 | 1013.4 |
| 20260503220600 | 66 | 167 | 1.0 | 7.0 | 0.00 | 0.00 | 0.00 | 27 | 1013.3 |
| 20260503220104 | 66 | 242 | 1.0 | 8.0 | 0.00 | 0.00 | 0.00 | 26 | 1013.4 |
| 20260503215600 | 66 | 125 | 0.0 | 8.0 | 0.00 | 0.00 | 0.00 | 26 | 1013.3 |
| 20260503215059 | 66 | 125 | 0.0 | 5.0 | 0.00 | 0.00 | 0.00 | 28 | 1013.3 |
| 20260503214600 | 66 | 18 | 1.0 | 10.0 | 0.00 | 0.00 | 0.00 | 26 | 1013.4 |
| 20260503214059 | 66 | 181 | 1.0 | 10.0 | 0.00 | 0.00 | 0.00 | 26 | 1013.5 |
| 20260503213559 | 66 | 162 | 1.0 | 7.0 | 0.00 | 0.00 | 0.00 | 29 | 1013.5 |
| 20260503213108 | 66 | 158 | 1.0 | 6.0 | 0.00 | 0.00 | 0.00 | 27 | 1013.4 |
| 20260503212559 | 66 | 154 | 2.0 | 8.0 | 0.00 | 0.00 | 0.00 | 27 | 1013.6 |
| 20260503212059 | 66 | 0 | 2.0 | 15.0 | 0.00 | 0.00 | 0.00 | 28 | 1013.5 |
| 20260503211559 | 66 | 119 | 4.0 | 15.0 | 0.00 | 0.00 | 0.00 | 26 | 1013.6 |
| 20260503211101 | 67 | 121 | 0.0 | 6.0 | 0.00 | 0.00 | 0.00 | 28 | 1013.4 |
| 20260503210600 | 66 | 347 | 2.0 | 6.0 | 0.00 | 0.00 | 0.00 | 31 | 1013.5 |
| 20260503210105 | 66 | 123 | 1.0 | 6.0 | 0.00 | 0.00 | 0.00 | 29 | 1013.4 |
| 20260503205603 | 66 | 161 | 1.0 | 6.0 | 0.00 | 0.00 | 0.00 | 28 | 1013.5 |
| 20260503205100 | 65 | 144 | 1.0 | 7.0 | 0.00 | 0.00 | 0.00 | 30 | 1013.7 |
| 20260503204609 | 65 | 136 | 1.0 | 8.0 | 0.00 | 0.00 | 0.00 | 27 | 1013.7 |
| 20260503204059 | 65 | 138 | 1.0 | 8.0 | 0.00 | 0.00 | 0.00 | 28 | 1013.7 |
| 20260503203600 | 66 | 341 | 0.0 | 8.0 | 0.00 | 0.00 | 0.00 | 28 | 1013.7 |
| 20260503203107 | 65 | 112 | 1.0 | 7.0 | 0.00 | 0.00 | 0.00 | 30 | 1013.6 |
| 20260503202600 | 65 | 157 | 1.0 | 7.0 | 0.00 | 0.00 | 0.00 | 36 | 1013.7 |
| 20260503202100 | 64 | 0 | 1.0 | 7.0 | 0.00 | 0.00 | 0.00 | 28 | 1013.7 |
| 20260503201601 | 64 | 143 | 2.0 | 11.0 | 0.00 | 0.00 | 0.00 | 32 | 1013.8 |
| 20260503201100 | 64 | 0 | 2.0 | 11.0 | 0.00 | 0.00 | 0.00 | 31 | 1013.9 |
| 20260503200559 | 65 | 253 | 1.0 | 9.0 | 0.00 | 0.00 | 0.00 | 27 | 1014.1 |
| 20260503195559 | 64 | 330 | 2.0 | 7.0 | 0.00 | 0.00 | 0.00 | 29 | 1014.5 |
| 20260503195100 | 63 | 2 | 1.0 | 6.0 | 0.00 | 0.00 | 0.00 | 35 | 1014.3 |
| 20260503194624 | 63 | 144 | 1.0 | 6.0 | 0.00 | 0.00 | 0.00 | 31 | 1014.4 |
| 20260503194100 | 62 | 94 | 2.0 | 11.0 | 0.00 | 0.00 | 0.00 | 31 | 1014.3 |
| 20260503193600 | 61 | 148 | 2.0 | 11.0 | 0.00 | 0.00 | 0.00 | 31 | 1014.4 |
| 20260503193100 | 61 | 122 | 3.0 | 11.0 | 0.00 | 0.00 | 0.00 | 30 | 1014.6 |
| 20260503192559 | 62 | 128 | 2.0 | 11.0 | 0.00 | 0.00 | 0.00 | 30 | 1014.5 |
| 20260503192100 | 62 | 0 | 2.0 | 11.0 | 0.00 | 0.00 | 0.00 | 28 | 1014.6 |
| 20260503191603 | 63 | 336 | 2.0 | 11.0 | 0.00 | 0.00 | 0.00 | 31 | 1014.7 |
| 20260503191059 | 62 | 347 | 2.0 | 9.0 | 0.00 | 0.00 | 0.00 | 33 | 1014.6 |
| 20260503190559 | 62 | 135 | 2.0 | 9.0 | 0.00 | 0.00 | 0.00 | 35 | 1014.8 |
| 20260503190103 | 62 | 252 | 1.0 | 8.0 | 0.00 | 0.00 | 0.00 | 32 | 1015.0 |
| 20260503185600 | 61 | 147 | 1.0 | 8.0 | 0.00 | 0.00 | 0.00 | 32 | 1014.8 |
| 20260503185100 | 62 | 158 | 2.0 | 8.0 | 0.00 | 0.00 | 0.00 | 32 | 1014.9 |
| 20260503184600 | 62 | 348 | 2.0 | 7.0 | 0.00 | 0.00 | 0.00 | 31 | 1015.1 |
| 20260503184059 | 62 | 139 | 2.0 | 9.0 | 0.00 | 0.00 | 0.00 | 32 | 1015.0 |
| 20260503183600 | 61 | 175 | 1.0 | 13.0 | 0.00 | 0.00 | 0.00 | 33 | 1015.2 |
| 20260503183108 | 61 | 2 | 2.0 | 13.0 | 0.00 | 0.00 | 0.00 | 39 | 1015.3 |
| 20260503182559 | 61 | 143 | 3.0 | 13.0 | 0.00 | 0.00 | 0.00 | 34 | 1015.2 |
| 20260503182059 | 60 | 346 | 2.0 | 8.0 | 0.00 | 0.00 | 0.00 | 31 | 1015.3 |
| 20260503181558 | 60 | 128 | 3.0 | 8.0 | 0.00 | 0.00 | 0.00 | 33 | 1015.3 |
| 20260503181059 | 60 | 128 | 1.0 | 8.0 | 0.00 | 0.00 | 0.00 | 34 | 1015.3 |
| 20260503180559 | 61 | 69 | 2.0 | 6.0 | 0.00 | 0.00 | 0.00 | 39 | 1015.4 |
| 20260503180107 | 60 | 154 | 2.0 | 8.0 | 0.00 | 0.00 | 0.00 | 33 | 1015.4 |
| 20260503175559 | 60 | 265 | 1.0 | 8.0 | 0.00 | 0.00 | 0.00 | 38 | 1015.4 |
| 20260503175059 | 59 | 106 | 2.0 | 8.0 | 0.00 | 0.00 | 0.00 | 34 | 1015.6 |
| 20260503174558 | 59 | 0 | 2.0 | 8.0 | 0.00 | 0.00 | 0.00 | 35 | 1015.5 |
| 20260503174100 | 59 | 9 | 2.0 | 7.0 | 0.00 | 0.00 | 0.00 | 37 | 1015.5 |
| 20260503173600 | 58 | 144 | 2.0 | 7.0 | 0.00 | 0.00 | 0.00 | 33 | 1015.4 |
| 20260503173205 | 58 | 0 | 1.0 | 8.0 | 0.00 | 0.00 | 0.00 | 36 | 1015.6 |
| 20260503172601 | 58 | 0 | 2.0 | 11.0 | 0.00 | 0.00 | 0.00 | 34 | 1015.7 |
| 20260503172059 | 58 | 146 | 3.0 | 12.0 | 0.00 | 0.00 | 0.00 | 34 | 1015.6 |
| 20260503171559 | 58 | 183 | 2.0 | 12.0 | 0.00 | 0.00 | 0.00 | 39 | 1015.7 |
| 20260503171059 | 57 | 117 | 1.0 | 7.0 | 0.00 | 0.00 | 0.00 | 40 | 1015.8 |
| 20260503170600 | 56 | 307 | 1.0 | 9.0 | 0.00 | 0.00 | 0.00 | 37 | 1015.8 |